{"data":{"norad_id":58557,"epoch":"2026-09-21T22:03:35.525952Z","epoch_age_seconds":122311,"freshness":"FRESH","line1":"1 58557U 23194A   26264.91916118  .00006386  00000+0  26877-3 0  9990","line2":"2 58557  35.0008 169.0643 0004436 111.1721 248.9468 15.22694794155111","mean_motion":15.22694794,"eccentricity":0.0004436,"inclination_deg":35.0008,"raan_deg":169.0643,"arg_perigee_deg":111.1721,"mean_anomaly_deg":248.9468,"bstar":0.00026877,"rev_number":15511,"period_min":94.569181274813,"perigee_km":494.66612671957,"apogee_km":500.76638372761,"semimajor_km":6875.8532552236,"source":"CELESTRAK","updated_at":"2026-09-22T09:00:26.733742Z"}}